Torna al catalogo

STARLINK-32679

AttivoComunicazioniVLEO
NORAD 62507·PAYLOAD·🇺🇸 United States

Lanciato Jan 6, 2025 da Cape Canaveral Space Force Station

Loading…

Prossimi Passaggi (prossime 24 ore)

TLE

AggiornatoSource: CelesTrak SupGP

Epoca: Sep 14, 2026, 15:17 UTC

1 62507C 25003W   26257.63729167  .00042401  00000+0  15375-2 0  2573
2 62507  43.0013 302.2611 0001467 272.8976  97.9546 15.27520054    19

Traccia STARLINK-32679 in tempo reale con AllMySat

Download on the App Store